This demonstration page uses our WeatherBlox Daily Observations layout. Learn more.

Left ArrowRight Arrow

39.12711, -84.51439

Hourly Observations for September 19, 2016

Temp ( °F °C ) Dew Point ( °F °C ) Humidity (%) Winds ( mph kmh ) Pressure ( in mb ) Visibility ( mi km ) Precip ( " mm )
12:53 am 00:53 Clear 67 19.4 67 19.4 100 100 Calm 29.99 1016 8 13 0.00 0.00
1:53 am 01:53 Clear with Mist and Fog 67 19.4 67 19.4 100 100 Calm 29.98 1015 6 10 0.00 0.00
2:12 am 02:12 Clear with Mist and Fog 66 19 66 19 100 100 Calm 29.97 1015 2 3 0.00 0.00
2:21 am 02:21 Clear with Fog 66 18.9 66 18.9 100 100 Calm 29.97 1015 1 1 0.00 0.00
2:33 am 02:33 Mostly Cloudy with Fog 66 18.9 66 18.9 100 100 Calm 29.97 1015 0 0 0.00 0.00
2:40 am 02:40 Mostly Cloudy with Mist and Fog 64 18 64 18 100 100 Calm 29.97 1015 1 1 0.00 0.00
2:43 am 02:43 Clear with Mist and Fog 66 18.9 66 18.9 100 100 Calm 29.97 1015 2 3 0.00 0.00
2:49 am 02:49 Clear with Mist and Fog 66 19 66 19 100 100 Calm 29.97 1015 1 1 0.00 0.00
2:50 am 02:50 Clear with Mist and Fog 66 18.9 66 18.9 100 100 Calm 29.99 1016 1 1 0.00 0.00
3:01 am 03:01 Mostly Cloudy with Fog 66 19 66 19 100 100 Calm 29.97 1015 1 1 0.00 0.00
3:21 am 03:21 Mostly Cloudy with Fog 65 18.3 65 18.3 100 100 Calm 29.97 1015 0 0 0.00 0.00
3:30 am 03:30 Mostly Cloudy with Mist and Fog 65 18.3 65 18.3 100 100 Calm 29.97 1015 1 2 0.00 0.00
3:40 am 03:40 Mostly Cloudy with Mist and Fog 66 18.9 66 18.9 100 100 Calm 29.97 1015 1 1 0.00 0.00
3:42 am 03:42 Mostly Clear with Mist and Fog 66 18.9 66 18.9 100 100 Calm 29.97 1015 1 2 0.00 0.00
3:50 am 03:50 Mostly Cloudy with Mist and Fog 63 17 63 17 100 100 Calm 29.97 1015 1 1 0.00 0.00
3:53 am 03:53 Mostly Cloudy with Fog 63 17.2 63 17.2 100 100 Calm 29.99 1016 0 0 0.00 0.00
4:13 am 04:13 Mostly Cloudy with Fog 64 17.8 64 17.8 100 100 Calm 29.97 1015 1 1 0.00 0.00
4:20 am 04:20 Partly Cloudy with Mist and Fog 64 18 64 18 100 100 Calm 29.97 1015 1 2 0.00 0.00
4:27 am 04:27 Mostly Cloudy with Mist and Fog 64 17.8 64 17.8 100 100 Calm 29.97 1015 1 1 0.00 0.00
4:34 am 04:34 Clear with Fog 63 17 63 17 100 100 Calm 29.97 1015 1 1 0.00 0.00
4:44 am 04:44 Clear with Fog 64 17.8 64 17.8 100 100 Calm 29.97 1015 0 0 0.00 0.00
4:53 am 04:53 Clear with Mist and Fog 63 17.2 63 17.2 100 100 Calm 29.99 1016 1 1 0.00 0.00
5:09 am 05:09 Clear with Mist and Fog 64 17.8 64 17.8 100 100 Calm 29.97 1015 4 6 0.00 0.00
5:12 am 05:12 Mostly Cloudy with Mist and Fog 63 17 63 17 100 100 Calm 29.97 1015 1 1 0.00 0.00
5:15 am 05:15 Mostly Cloudy with Fog 62 16.7 62 16.7 100 100 Calm 29.97 1015 0 0 0.00 0.00
5:25 am 05:25 Mostly Cloudy with Fog 63 17.2 63 17.2 100 100 Calm 29.97 1015 1 1 0.00 0.00
5:33 am 05:33 Mostly Cloudy with Fog 63 17.2 63 17.2 100 100 Calm 29.97 1015 1 1 0.00 0.00
5:44 am 05:44 Partly Cloudy with Mist and Fog 64 18 64 18 100 100 Calm 30.00 1016 1 2 0.00 0.00
5:47 am 05:47 Mostly Clear with Mist and Fog 63 17 63 17 100 100 Calm 30.00 1016 4 6 0.00 0.00
5:51 am 05:51 Partly Cloudy with Mist and Fog 63 17 63 17 100 100 Calm 30.00 1016 1 2 0.00 0.00
5:53 am 05:53 Mostly Cloudy with Mist and Fog 61 16.1 61 16.1 100 100 Calm 30.01 1016 1 1 0.00 0.00
6:07 am 06:07 Mostly Clear with Mist and Fog 63 17.2 63 17.2 100 100 Calm 30.00 1016 2 2 0.00 0.00
6:09 am 06:09 Mostly Clear with Mist and Fog 63 17.2 63 17.2 100 100 Calm 30.00 1016 4 6 0.00 0.00
6:53 am 06:53 Clear with Patchy Fog 63 17.2 63 17.2 100 100 Calm 30.03 1017 6 10 0.00 0.00
7:03 am 07:03 Clear with Patchy Fog 61 16 61 16 100 100 Calm 30.03 1017 1 2 0.00 0.00
7:08 am 07:08 Mostly Cloudy with Patchy Fog 61 16 61 16 100 100 Calm 30.03 1017 0 0 0.00 0.00
7:16 am 07:16 Mostly Cloudy with Patchy Fog 63 17 63 17 100 100 Calm 30.03 1017 1 2 0.00 0.00
7:19 am 07:19 Clear with Patchy Fog 63 17.2 63 17.2 100 100 Calm 30.03 1017 2 3 0.00 0.00
7:27 am 07:27 Sunny with Patchy Fog 62 16.7 62 16.7 100 100 Calm 30.03 1017 7 11 0.00 0.00
7:53 am 07:53 Sunny with Patchy Fog 62 16.7 62 16.7 100 100 Calm 30.05 1018 7 11 0.00 0.00
8:53 am 08:53 Sunny 67 19.4 67 19.4 100 100 Calm 30.06 1018 7 11 0.00 0.00
9:53 am 09:53 Sunny 72 22.2 66 18.9 82 82 E 3 6 30.07 1018 10 16 0.00 0.00
10:53 am 10:53 Sunny 75 23.9 66 18.9 74 74 ENE 5 7 30.08 1019 10 16 0.00 0.00
11:53 am 11:53 Sunny 79 26.1 66 18.9 65 65 E 5 7 30.07 1018 10 16 0.00 0.00
12:53 pm 12:53 Partly Cloudy 82 27.8 66 18.9 58 58 ENE 3 6 30.06 1018 10 16 0.00 0.00
1:53 pm 13:53 Partly Cloudy 83 28.3 63 17.2 51 51 Calm 30.05 1018 10 16 0.00 0.00
2:53 pm 14:53 Partly Cloudy 84 28.9 62 16.7 48 48 Calm 30.04 1017 10 16 0.00 0.00
3:53 pm 15:53 Mostly Sunny 85 29.4 61 16.1 45 45 Calm 30.04 1017 10 16 0.00 0.00
4:53 pm 16:53 Mostly Sunny 85 29.4 60 15.6 43 43 Calm 30.03 1017 10 16 0.00 0.00
5:53 pm 17:53 Mostly Cloudy 83 28.3 61 16.1 48 48 ENE 6 9 30.03 1017 10 16 0.00 0.00
6:53 pm 18:53 Mostly Sunny 78 25.6 66 18.9 67 67 E 5 7 30.03 1017 10 16 0.00 0.00
7:53 pm 19:53 Clear 70 21.1 66 18.9 87 87 Calm 30.05 1018 10 16 0.00 0.00
8:53 pm 20:53 Clear 67 19.4 64 17.8 91 91 Calm 30.07 1018 10 16 0.00 0.00
9:53 pm 21:53 Clear 65 18.3 64 17.8 97 97 Calm 30.08 1019 10 16 0.00 0.00
10:53 pm 22:53 Clear 64 17.8 64 17.8 100 100 Calm 30.08 1019 10 16 0.00 0.00
11:53 pm 23:53 Clear 63 17.2 63 17.2 100 100 Calm 30.09 1019 8 13 0.00 0.00

Powered by AerisWeather